Погода в Казино

Россия / Липецкая область     52°35′04″N   39°08′31″E
темп.,
°C
ветер,
м/с
пор.,
м/с
влажн.,
%
обл.,
%
осадки,
мм/ч
давл.,
гПа
погр.,
м
11 мая, вт
вт1100:00+8св8189091 0.0 1020663
03:00+8ссв9199296 0.0 1018451
06:00+9ссв91891100 0.0 1018535
09:00+13св81583100 0.0 1019808
12:00+10в61290100 0.4 1021796
15:00+14в7105776 0.6 10221584
18:00+13вюв69657 0.0 10231183
21:00+8вюв49834 0.0 1025227
12 мая, ср
ср1200:00+6в379394 0.0 1026135
03:00+6всв3694100 0.0 1026100
06:00+7всв4108887 0.0 1025271
09:00+11всв5772100 0.0 1024697
12:00+13всв4467100 0.2 10221121
15:00+13всв446786 0.3 1020926
18:00+14в57725 0.0 1019945
21:00+11в51184100 0.0 1019280
13 мая, чт
чт1300:00+10в51385100 0.0 1019418
03:00+10в5118898 0.1 1019315
06:00+10в4992100 0.1 1018232
09:00+15юв357593 0.1 1017483
12:00+19юв3456100 0.0 10161353
15:00+21ююв465053 0.0 10152115
18:00+19ююв366634 0.2 1015186
21:00+15юв3678100 0.3 101697
14 мая, пт
пт1400:00+15вюв3679100 0.0 1016136
03:00+15вюв3985100 0.0 1016216
06:00+15вюв4118986 0.0 1016320
09:00+19вюв6107597 0.3 1016537
12:00+24юв795870 0.0 10151472
15:00+25юв7105767 0.0 10131606
18:00+23юв597078 0.0 1012373
21:00+19юв3384100 2.6 101237
15 мая, сб
сб1500:00+17зюз4994100 0.6 1013301
03:00+16в479488 0.6 1011108
06:00+15ююв3894100 0.9 1012275
09:00+19ююв468399 1.4 1011451
12:00+22ю61069100 0.0 10111075
15:00+21ююв61077100 2.4 1010654
18:00+20ю58781 2.7 1011650
21:00+16ю41088100 4.8 1011192